Atmospheric History
02/08/2018 18:13  to  2/9/2018 18:13
Change End Date:
To complete the export process:
1) Select all of the data below
2) Copy the data to the clipboard
3) Open a word processor such as Notepad
4) Paste the data into the word processor
5) Save the file

Date/Time (MST), AirTemp, RH, Dewpoint ,AvgWindSpeed, GustWindSpeed, WindDirection, PrecipType, PrecipIntensity, PrecipAccumulation, PrecipRate
02/09/2018 18:12, 18, 71, 11 ,0, 0, W, None, None, ,  
02/09/2018 18:02, 19, 69, 11 ,0, 0, W, None, None, ,  
02/09/2018 18:00, 19, 69, 11 ,0, 0, W, None, None, ,  
02/09/2018 17:52, 19, 66, 10 ,0, 0, W, None, None, ,  
02/09/2018 17:45, 20, 64, 10 ,0, 0, W, None, None, ,  
02/09/2018 17:42, 20, 63, 10 ,0, 0, W, None, None, ,  
02/09/2018 17:32, 21, 61, 10 ,0, 0, W, None, None, ,  
02/09/2018 17:30, 21, 61, 9 ,0, 0, W, None, None, ,  
02/09/2018 17:22, 21, 58, 9 ,0, 0, W, None, None, ,  
02/09/2018 17:15, 21, 57, 8 ,0, 1, W, None, None, ,  
02/09/2018 17:12, 21, 56, 8 ,0, 1, W, None, None, ,  
02/09/2018 17:01, 21, 54, 8 ,0, 2, W, None, None, ,  
02/09/2018 17:00, 21, 53, 7 ,0, 2, W, None, None, ,  
02/09/2018 16:51, 22, 51, 7 ,0, 1, NW, None, None, ,  
02/09/2018 16:45, 22, 49, 6 ,1, 4, W, None, None, ,  
02/09/2018 16:41, 22, 49, 6 ,1, 4, W, None, None, ,  
02/09/2018 16:31, 22, 49, 6 ,2, 4, NW, None, None, ,  
02/09/2018 16:30, 22, 48, 6 ,2, 4, NW, None, None, ,  
02/09/2018 16:21, 22, 47, 5 ,2, 4, NW, None, None, ,  
02/09/2018 16:15, 22, 47, 5 ,2, 4, NW, None, None, ,  
02/09/2018 16:11, 22, 47, 5 ,2, 4, NW, None, None, ,  
02/09/2018 16:01, 23, 46, 5 ,2, 4, NW, None, None, ,  
02/09/2018 16:00, 23, 45, 5 ,2, 4, W, None, None, ,  
02/09/2018 15:51, 23, 44, 4 ,1, 3, SW, None, None, ,  
02/09/2018 15:45, 23, 43, 4 ,1, 4, NW, None, None, ,  
02/09/2018 15:41, 23, 44, 4 ,2, 4, W, None, None, ,  
02/09/2018 15:31, 24, 44, 5 ,2, 5, N, None, None, ,  
02/09/2018 15:30, 23, 44, 5 ,1, 5, N, None, None, ,  
02/09/2018 15:21, 24, 43, 4 ,1, 6, NW, None, None, ,  
02/09/2018 15:15, 24, 42, 4 ,3, 6, NW, None, None, ,  
02/09/2018 15:11, 24, 42, 4 ,1, 7, NW, None, None, ,  
02/09/2018 15:01, 24, 43, 4 ,3, 7, NW, None, None, ,  
02/09/2018 15:00, 24, 43, 4 ,5, 7, NW, None, None, ,  
02/09/2018 14:51, 23, 41, 3 ,4, 7, NW, None, None, ,  
02/09/2018 14:45, 24, 41, 4 ,4, 7, NW, None, None, ,  
02/09/2018 14:41, 25, 41, 5 ,3, 5, W, None, None, ,  
02/09/2018 14:31, 24, 42, 4 ,4, 7, NW, None, None, ,  
02/09/2018 14:30, 24, 42, 4 ,4, 7, NW, None, None, ,  
02/09/2018 14:21, 24, 41, 4 ,4, 7, NW, None, None, ,  
02/09/2018 14:15, 26, 42, 6 ,2, 7, W, None, None, ,  
02/09/2018 14:11, 26, 43, 6 ,6, 7, NW, None, None, ,  
02/09/2018 14:01, 26, 44, 7 ,2, 7, W, None, None, ,  
02/09/2018 14:00, 26, 45, 7 ,3, 7, W, None, None, ,  
02/09/2018 13:50, 25, 45, 7 ,1, 7, W, None, None, ,  
02/09/2018 13:45, 26, 45, 8 ,3, 6, NW, None, None, ,  
02/09/2018 13:40, 27, 45, 9 ,1, 4, N, None, None, ,  
02/09/2018 13:30, 25, 48, 8 ,3, 5, NW, None, None, ,  
02/09/2018 13:30, 25, 48, 8 ,3, 5, NW, None, None, ,  
02/09/2018 13:20, 23, 50, 7 ,3, 4, NW, None, None, ,  
02/09/2018 13:15, 22, 51, 7 ,0, 4, SW, None, None, ,  
02/09/2018 13:10, 22, 52, 7 ,2, 5, W, None, None, ,  
02/09/2018 13:00, 22, 52, 8 ,2, 6, NW, None, None, ,  
02/09/2018 13:00, 22, 52, 8 ,2, 6, NW, None, None, ,  
02/09/2018 12:50, 21, 53, 7 ,3, 6, NW, None, None, ,  
02/09/2018 12:45, 21, 53, 7 ,1, 6, W, None, None, ,  
02/09/2018 12:40, 20, 54, 7 ,1, 5, NW, None, None, ,  
02/09/2018 12:30, 19, 55, 6 ,1, 5, NW, None, None, ,  
02/09/2018 12:30, 19, 55, 6 ,1, 5, NW, None, None, ,  
02/09/2018 12:20, 18, 57, 5 ,3, 6, NW, None, None, ,  
02/09/2018 12:15, 18, 58, 5 ,3, 6, NW, None, None, ,  
02/09/2018 12:10, 17, 58, 5 ,2, 5, NW, None, None, ,  
02/09/2018 12:00, 17, 59, 6 ,2, 4, NW, None, None, ,  
02/09/2018 12:00, 17, 59, 6 ,2, 4, NW, None, None, ,  
02/09/2018 11:50, 17, 59, 5 ,2, 6, NW, None, None, ,  
02/09/2018 11:45, 16, 60, 5 ,4, 6, NW, None, None, ,  
02/09/2018 11:40, 16, 62, 6 ,2, 6, NW, None, None, ,  
02/09/2018 11:30, 16, 67, 7 ,2, 6, NW, None, None, ,  
02/09/2018 11:30, 16, 67, 7 ,2, 6, NW, None, None, ,  
02/09/2018 11:20, 15, 74, 8 ,2, 6, NW, None, None, ,  
02/09/2018 11:15, 14, 76, 8 ,2, 4, NW, None, None, ,  
02/09/2018 11:10, 13, 78, 8 ,2, 4, NW, None, None, ,  
02/09/2018 11:00, 12, 84, 8 ,4, 6, NW, None, None, ,  
02/09/2018 11:00, 12, 84, 9 ,4, 6, NW, None, None, ,  
02/09/2018 10:50, 11, 87, 8 ,2, 4, NW, None, None, ,  
02/09/2018 10:45, 11, 87, 8 ,2, 4, NW, None, None, ,  
02/09/2018 10:39, 10, 87, 7 ,1, 2, NW, None, None, ,  
02/09/2018 10:30, 9, 86, 6 ,1, 2, NW, None, None, ,  
02/09/2018 10:29, 9, 86, 6 ,1, 2, NW, None, None, ,  
02/09/2018 10:19, 8, 86, 5 ,2, 3, NW, None, None, ,  
02/09/2018 10:15, 8, 86, 5 ,2, 3, NW, None, None, ,  
02/09/2018 10:09, 7, 86, 4 ,2, 3, NW, None, None, ,  
02/09/2018 10:00, 6, 86, 3 ,1, 3, NW, None, None, ,  
02/09/2018 09:59, 6, 86, 3 ,1, 3, NW, None, None, ,  
02/09/2018 09:49, 6, 86, 2 ,2, 3, NW, None, None, ,  
02/09/2018 09:45, 5, 86, 2 ,0, 0, SE, None, None, ,  
02/09/2018 09:39, 5, 86, 1 ,0, 0, SE, None, None, ,  
02/09/2018 09:30, 4, 86, 1 ,0, 1, SE, None, None, ,  
02/09/2018 09:29, 4, 86, 1 ,0, 1, SE, None, None, ,  
02/09/2018 09:19, 4, 86, 0 ,0, 2, SE, None, None, ,  
02/09/2018 09:15, 4, 86, 0 ,1, 2, SE, None, None, ,  
02/09/2018 09:09, 3, 86, 0 ,1, 2, SE, None, None, ,  
02/09/2018 09:00, 3, 86, 0 ,1, 4, SE, None, None, ,  
02/09/2018 08:59, 3, 86, 0 ,2, 4, SE, None, None, ,  
02/09/2018 08:49, 3, 86, 0 ,1, 4, SE, None, None, ,  
02/09/2018 08:45, 3, 86, 0 ,3, 4, SE, None, None, ,  
02/09/2018 08:39, 3, 86, 0 ,0, 2, SE, None, None, ,  
02/09/2018 08:30, 3, 86, 0 ,2, 2, SE, None, None, ,  
02/09/2018 08:29, 3, 86, 0 ,2, 2, SE, None, None, ,  
02/09/2018 08:19, 4, 86, 0 ,0, 3, S, None, None, ,  
02/09/2018 08:15, 3, 86, 0 ,1, 4, S, None, None, ,  
02/09/2018 08:09, 4, 86, 0 ,3, 3, SE, None, None, ,  
02/09/2018 08:00, 4, 86, 1 ,1, 3, SE, None, None, ,  
02/09/2018 07:59, 4, 86, 1 ,1, 3, SE, None, None, ,  
02/09/2018 07:49, 4, 86, 1 ,3, 4, SE, None, None, ,  
02/09/2018 07:45, 4, 86, 1 ,2, 4, SE, None, None, ,  
02/09/2018 07:38, 4, 86, 1 ,2, 4, SE, None, None, ,  
02/09/2018 07:30, 5, 86, 2 ,0, 3, SE, None, None, ,  
02/09/2018 07:28, 5, 86, 2 ,0, 3, SE, None, None, ,  
02/09/2018 07:18, 5, 86, 2 ,2, 3, SE, None, None, ,  
02/09/2018 07:15, 6, 86, 2 ,2, 3, SE, None, None, ,  
02/09/2018 07:08, 6, 86, 2 ,2, 4, S, None, None, ,  
02/09/2018 07:00, 6, 86, 3 ,3, 4, SE, None, None, ,  
02/09/2018 06:58, 6, 86, 3 ,3, 4, SE, None, None, ,  
02/09/2018 06:48, 7, 86, 4 ,1, 3, SE, None, None, ,  
02/09/2018 06:45, 7, 86, 4 ,2, 3, SE, None, None, ,  
02/09/2018 06:38, 7, 86, 4 ,0, 2, SE, None, None, ,  
02/09/2018 06:30, 7, 86, 4 ,1, 2, SE, None, None, ,  
02/09/2018 06:28, 7, 86, 4 ,1, 2, SE, None, None, ,  
02/09/2018 06:18, 8, 86, 5 ,1, 2, SE, None, None, ,  
02/09/2018 06:15, 8, 86, 5 ,0, 1, SE, None, None, ,  
02/09/2018 06:08, 8, 86, 5 ,1, 1, SE, None, None, ,  
02/09/2018 06:00, 9, 86, 5 ,0, 0, SE, None, None, ,  
02/09/2018 05:58, 9, 86, 6 ,0, 0, SE, None, None, ,  
02/09/2018 05:48, 9, 85, 6 ,0, 2, SE, None, None, ,  
02/09/2018 05:45, 10, 85, 6 ,0, 2, SE, None, None, ,  
02/09/2018 05:38, 10, 85, 6 ,0, 1, W, None, None, ,  
02/09/2018 05:30, 10, 85, 7 ,0, 0, W, None, None, ,  
02/09/2018 05:28, 10, 84, 7 ,0, 0, W, Yes, , ,  
02/09/2018 05:18, 11, 84, 8 ,0, 0, W, Yes, , ,  
02/09/2018 05:15, 11, 84, 8 ,0, 0, W, Yes, , ,  
02/09/2018 05:08, 11, 84, 8 ,0, 0, W, Yes, , ,  
02/09/2018 05:00, 12, 84, 8 ,0, 0, W, Yes, , ,  
02/09/2018 04:58, 12, 83, 8 ,0, 0, W, Yes, , ,  
02/09/2018 04:48, 12, 83, 8 ,1, 4, SW, Yes, , ,  
02/09/2018 04:45, 12, 83, 8 ,1, 4, NW, Yes, , ,  
02/09/2018 04:37, 12, 83, 8 ,0, 2, NW, Yes, , ,  
02/09/2018 04:30, 12, 82, 8 ,0, 2, NW, Yes, , ,  
02/09/2018 04:27, 12, 82, 8 ,0, 2, NW, Yes, , ,  
02/09/2018 04:17, 12, 82, 8 ,1, 3, NW, Yes, , ,  
02/09/2018 04:15, 12, 81, 8 ,1, 3, NW, Yes, , ,  
02/09/2018 04:07, 12, 81, 8 ,1, 5, NW, Yes, , ,  
02/09/2018 04:00, 13, 81, 8 ,1, 3, W, Yes, , ,  
02/09/2018 03:57, 13, 81, 8 ,1, 3, NW, Yes, , ,  
02/09/2018 03:47, 13, 81, 8 ,0, 1, W, Yes, , ,  
02/09/2018 03:45, 13, 81, 8 ,1, 1, W, Yes, , ,  
02/09/2018 03:37, 13, 81, 8 ,0, 2, W, Yes, , ,  
02/09/2018 03:30, 13, 81, 9 ,1, 2, NW, Yes, , ,  
02/09/2018 03:27, 13, 81, 9 ,0, 1, NW, Yes, , ,  
02/09/2018 03:17, 13, 82, 9 ,0, 1, NW, None, None, ,  
02/09/2018 03:15, 13, 82, 8 ,0, 1, NW, None, None, ,  
02/09/2018 03:07, 13, 82, 9 ,0, 2, N, None, None, ,  
02/09/2018 03:00, 13, 82, 9 ,0, 0, W, None, None, ,  
02/09/2018 02:57, 13, 82, 9 ,0, 1, W, None, None, ,  
02/09/2018 02:47, 13, 82, 9 ,0, 0, W, Yes, , ,  
02/09/2018 02:45, 13, 82, 9 ,0, 1, W, None, None, ,  
02/09/2018 02:37, 13, 82, 8 ,0, 1, W, None, None, ,  
02/09/2018 02:30, 13, 81, 8 ,0, 0, NW, Yes, , ,  
02/09/2018 02:27, 13, 81, 8 ,0, 0, NW, Yes, , ,  
02/09/2018 02:17, 13, 81, 8 ,0, 4, NW, Yes, , ,  
02/09/2018 02:15, 13, 81, 8 ,1, 4, NW, Yes, , ,  
02/09/2018 02:07, 13, 80, 8 ,1, 4, NW, Yes, , ,  
02/09/2018 02:00, 13, 79, 8 ,1, 4, NW, Yes, , ,  
02/09/2018 01:57, 13, 79, 8 ,2, 4, NW, Yes, , ,  
02/09/2018 01:47, 13, 78, 8 ,1, 4, NW, Yes, , ,  
02/09/2018 01:45, 13, 78, 8 ,2, 4, NW, Yes, , ,  
02/09/2018 01:37, 13, 78, 8 ,1, 2, NW, Yes, , ,  
02/09/2018 01:30, 13, 78, 8 ,0, 2, NW, Yes, , ,  
02/09/2018 01:26, 13, 78, 8 ,0, 2, NW, Yes, , ,  
02/09/2018 01:16, 13, 78, 8 ,1, 2, S, Yes, , ,  
02/09/2018 01:15, 13, 78, 8 ,1, 2, SW, Yes, , ,  
02/09/2018 01:06, 13, 78, 8 ,0, 4, W, Yes, , ,  
02/09/2018 01:00, 14, 78, 8 ,0, 2, SW, None, None, ,  
02/09/2018 00:56, 14, 78, 8 ,0, 2, NW, Yes, , ,  
02/09/2018 00:46, 14, 78, 8 ,0, 2, NW, Yes, , ,  
02/09/2018 00:45, 14, 78, 8 ,1, 2, NW, Yes, , ,  
02/09/2018 00:36, 14, 78, 8 ,1, 5, NW, Yes, , ,  
02/09/2018 00:30, 14, 78, 8 ,1, 7, NW, Yes, , ,  
02/09/2018 00:26, 14, 78, 9 ,1, 7, W, Yes, , ,  
02/09/2018 00:16, 14, 79, 9 ,2, 4, NW, Yes, , ,  
02/09/2018 00:15, 14, 79, 9 ,2, 3, NW, Yes, , ,  
02/09/2018 00:06, 14, 79, 9 ,1, 2, NW, None, None, ,  
02/09/2018 00:00, 14, 79, 9 ,0, 1, N, None, None, ,  
02/08/2018 23:56, 14, 79, 9 ,0, 0, E, None, None, ,  
02/08/2018 23:46, 14, 79, 9 ,0, 1, E, None, None, ,  
02/08/2018 23:45, 14, 79, 9 ,0, 1, E, None, None, ,  
02/08/2018 23:36, 15, 78, 9 ,0, 1, NE, None, None, ,  
02/08/2018 23:30, 15, 78, 9 ,0, 1, NE, None, None, ,  
02/08/2018 23:26, 15, 78, 9 ,0, 3, SE, None, None, ,  
02/08/2018 23:16, 15, 78, 9 ,0, 2, W, None, None, ,  
02/08/2018 23:15, 15, 78, 9 ,0, 2, W, None, None, ,  
02/08/2018 23:06, 14, 78, 9 ,0, 1, N, None, None, ,  
02/08/2018 23:00, 14, 78, 9 ,1, 1, S, None, None, ,  
02/08/2018 22:56, 14, 78, 9 ,0, 1, SW, None, None, ,  
02/08/2018 22:46, 14, 79, 9 ,0, 2, SE, None, None, ,  
02/08/2018 22:45, 14, 79, 9 ,0, 2, SE, None, None, ,  
02/08/2018 22:36, 14, 80, 10 ,0, 1, SW, None, None, ,  
02/08/2018 22:30, 14, 80, 10 ,0, 2, SW, None, None, ,  
02/08/2018 22:26, 14, 81, 10 ,0, 3, N, None, None, ,  
02/08/2018 22:15, 15, 82, 10 ,0, 1, N, None, None, ,  
02/08/2018 22:15, 15, 82, 10 ,0, 1, N, None, None, ,  
02/08/2018 22:05, 15, 82, 10 ,1, 4, NW, None, None, ,  
02/08/2018 22:00, 15, 83, 11 ,1, 6, N, None, None, ,  
02/08/2018 21:55, 15, 83, 11 ,2, 6, NW, None, None, ,  
02/08/2018 21:45, 15, 83, 11 ,0, 3, NW, None, None, ,  
02/08/2018 21:45, 15, 84, 11 ,1, 3, NW, None, None, ,  
02/08/2018 21:35, 15, 84, 11 ,0, 1, SE, None, None, ,  
02/08/2018 21:30, 15, 84, 11 ,0, 2, E, Yes, , ,  
02/08/2018 21:25, 15, 84, 11 ,0, 2, E, None, None, ,  
02/08/2018 21:15, 15, 85, 11 ,1, 4, SW, Yes, , ,  
02/08/2018 21:15, 15, 85, 11 ,1, 4, SW, Yes, , ,  
02/08/2018 21:05, 15, 85, 11 ,1, 3, SE, Yes, , ,  
02/08/2018 21:00, 15, 85, 12 ,0, 3, SE, Yes, , ,  
02/08/2018 20:55, 15, 86, 12 ,2, 3, S, Yes, , ,  
02/08/2018 20:45, 15, 86, 12 ,1, 4, SE, Yes, , ,  
02/08/2018 20:45, 15, 86, 12 ,1, 4, SE, Yes, , ,  
02/08/2018 20:35, 16, 86, 12 ,0, 2, NW, Yes, , ,  
02/08/2018 20:30, 16, 86, 12 ,1, 2, NW, Yes, , ,  
02/08/2018 20:25, 16, 86, 13 ,1, 2, NW, Yes, , ,  
02/08/2018 20:15, 16, 86, 12 ,1, 7, N, Yes, , ,  
02/08/2018 20:15, 16, 86, 12 ,1, 7, N, Yes, , ,  
02/08/2018 20:05, 16, 86, 13 ,3, 7, W, Yes, , ,  
02/08/2018 20:00, 16, 86, 13 ,1, 7, NE, Yes, , ,  
02/08/2018 19:55, 17, 86, 13 ,1, 11, N, Yes, , ,  
02/08/2018 19:45, 18, 86, 14 ,2, 4, W, Yes, , ,  
02/08/2018 19:45, 18, 85, 14 ,2, 4, W, Yes, , ,  
02/08/2018 19:35, 18, 85, 14 ,0, 7, N, Yes, , ,  
02/08/2018 19:30, 18, 84, 14 ,2, 7, NW, Yes, , ,  
02/08/2018 19:25, 18, 84, 14 ,3, 7, W, Yes, , ,  
02/08/2018 19:15, 18, 83, 13 ,4, 6, S, Yes, , ,  
02/08/2018 19:14, 18, 82, 13 ,4, 6, SE, Yes, , ,  
02/08/2018 19:04, 18, 81, 13 ,2, 7, NW, Yes, , ,  
02/08/2018 19:00, 18, 81, 13 ,2, 9, N, Yes, , ,  
02/08/2018 18:54, 18, 79, 13 ,6, 9, NW, Yes, , ,  
02/08/2018 18:45, 18, 77, 12 ,1, 6, N, Yes, , ,  
02/08/2018 18:44, 18, 77, 12 ,2, 6, N, Yes, , ,  
02/08/2018 18:34, 18, 74, 11 ,2, 15, N, Yes, , ,  
02/08/2018 18:30, 19, 72, 11 ,5, 15, W, Yes, , ,  
02/08/2018 18:24, 20, 68, 11 ,2, 7, NE, Yes, , ,  
02/08/2018 18:15, 20, 65, 11 ,2, 14, SW, Yes, , ,  
02/08/2018 18:14, 20, 65, 10 ,1, 14, SW, Yes, , ,  
Change End Date:

Copyright © 1998-2015 Vaisala, Inc.
All Rights Reserved
Send comments about the data to:
SCAN Web ® is a registered trademark of Vaisala, Inc.
SCAN Web Version 6.0